{"data":{"norad_id":57504,"epoch":"2026-09-20T13:27:07.246656Z","epoch_age_seconds":122044,"freshness":"FRESH","line1":"1 57504U 23113K   26263.56050054 -.00000793  00000+0 -19292-4 0  9992","line2":"2 57504  43.0035 355.9157 0001003 274.2212  85.8525 15.27579022173472","mean_motion":15.27579022,"eccentricity":0.0001003,"inclination_deg":43.0035,"raan_deg":355.9157,"arg_perigee_deg":274.2212,"mean_anomaly_deg":85.8525,"bstar":-1.9292e-5,"rev_number":17347,"period_min":94.266809065934,"perigee_km":482.36384726589,"apogee_km":483.74020178421,"semimajor_km":6861.189024525,"source":"CELESTRAK","updated_at":"2026-09-21T09:00:33.633710Z"}}